Probability
0 0 0 0 0 0 0 0 0 0 0 0 3 3 0 6 10 3 3 3 3 6 6 6 6 13 13 6 3 0 3 3 0 0 3 6 6 6 3 10 6 6 6 10
0 0 0 0 0 0 0 0 0 0 0 0 0 0 0 0 10 6 3 3 3 3 3 10 10 10 13 10 6 6 3 3 3 0 0 3 3 3 3 6 3 6 10 10
0 0 0 0 0 0 0 0 0 0 0 0 0 0 0 0 0 6 6 6 3 3 3 6 10 10 13 13 13 6 6 10 10 6 3 3 3 3 3 0 3 3 6 6
0 0 0 0 0 0 0 0 0 0 0 0 0 0 0 0 0 3 6 6 6 3 3 6 6 6 10 13 13 10 6 6 10 3 3 6 6 13 10 10 3 3 3 6
0 0 0 0 0 0 0 0 0 0 0 0 0 0 0 0 0 0 0 0 0 0 3 6 6 10 10 10 16 10 6 6 10 6 10 10 10 13 6 3 10 6 3 3
0 0 0 0 0 0 0 0 0 0 0 0 0 0 0 0 0 0 0 3 6 6 3 10 13 10 10 10 10 13 10 13 10 13 13 16 13 10 3 6 10 6 3 0
0 0 0 0 0 0 0 0 0 0 0 0 0 0 0 0 0 0 3 6 10 10 6 13 13 10 10 10 10 13 10 16 13 6 13 13 13 10 10 10 10 10 6 3
0 0 0 0 0 0 0 0 0 0 0 0 0 0 0 0 6 10 10 10 10 10 13 13 13 10 13 16 13 13 16 16 16 13 16 16 10 10 10 6 6 6 6 10
0 0 0 0 0 0 0 0 0 0 0 0 0 0 0 3 10 10 10 10 10 6 10 10 10 13 13 10 13 13 10 13 13 16 13 13 10 10 6 6 6 10 10 10
0 0 0 0 0 0 0 0 0 0 0 0 0 0 0 0 3 10 10 6 6 3 3 3 10 3 6 6 6 10 10 10 13 13 10 6 6 6 3 3 6 6 6 3
0 0 0 0 0 0 0 0 0 0 0 0 0 0 0 3 6 10 6 6 0 0 0 0 3 0 0 3 3 3 3 0 3 6 6 6 3 3 3 3 3 3 3 3
0 0 0 0 0 0 0 0 0 0 0 0 0 0 6 6 6 6 3 0 0 0 0 0 0 0 0 3 3 0 0 3 3 3 3 3 0 0 0 3 3 3 6 6
0 0 0 0 0 0 0 0 0 0 0 0 0 0 6 10 3 0 0 0 0 0 0 0 0 0 0 0 6 3 3 6 0 0 0 3 0 0 0 0 0 0 3 3
0 0 0 0 0 0 0 0 0 0 0 0 0 0 10 10 3 0 0 0 0 0 0 0 0 0 0 0 3 6 3 3 0 0 0 0 0 0 0 0 0 3 3 3
0 0 0 0 0 0 0 0 0 0 0 0 0 0 6 10 3 0 0 0 0 0 0 0 0 0 0 0 0 0 0 0 0 0 0 0 0 0 0 0 0 3 0 3
0 0 0 0 0 0 0 0 0 0 0 0 0 3 3 3 0 0 0 0 0 0 0 0 0 0 0 0 0 3 3 0 0 0 0 0 0 0 0 0 0 0 0 0
0 0 0 0 0 0 0 0 3 3 0 0 0 0 0 0 0 0 0 0 0 0 0 0 0 0 0 3 3 3 0 0 0 0 0 3 0 0 0 0 0 0 0 0
0 0 0 0 0 0 0 0 0 0 0 0 0 0 0 0 0 0 0 0 0 0 0 0 0 0 0 0 0 0 0 0 0 0 0 0 0 0 0 0 0 0 0 0
0 0 0 0 0 0 0 0 0 0 0 0 0 0 0 0 0 0 0 0 0 0 0 0 0 0 0 0 0 0 0 0 0 0 0 0 0 0 0 0 0 0 0 0
0 0 0 0 0 0 0 0 0 0 0 0 0 0 0 0 0 0 0 0 0 0 0 0 0 0 0 0 0 0 0 0 0 0 0 0 0 0 0 0 0 0 0 0
0 0 0 0 0 0 0 0 0 0 0 0 0 0 0 0 0 0 0 0 0 0 0 0 0 0 0 0 0 0 0 0 0 0 0 0 0 0 0 0 0 0 0 0
0 0 0 0 0 0 0 0 0 0 0 0 0 0 0 0 0 0 0 0 0 0 0 0 0 0 0 0 0 0 0 0 0 0 0 0 0 0 0 0 0 0 0 0
0 0 0 0 0 0 0 0 0 0 0 0 0 0 0 0 0 0 0 0 0 0 0 0 0 0 0 0 0 0 0 0 0 0 0 0 0 0 0 0 0 0 0 0
0 0 0 0 0 0 0 0 0 0 0 0 0 0 0 0 0 0 0 0 0 0 0 0 0 0 0 0 0 0 0 0 0 0 0 0 0 0 0 0 0 0 0 0
0 0 0 0 0 0 0 0 0 0 0 0 0 0 0 0 0 0 0 0 0 0 0 0 0 0 0 0 0 0 0 0 0 0 0 0 0 0 0 0 0 0 0 0
0 0 0 0 0 0 0 0 0 0 0 0 0 0 0 0 0 0 0 0 0 0 0 0 0 0 0 0 0 0 0 0 0 0 0 0 0 0 0 0 0 0 0 0
Height
5848 5850 5851 5853 5853 5854 5855 5855 5856 5857 5857 5855 5855 5855 5856 5855 5854 5854 5853 5852 5851 5849 5849 5848 5847 5847 5846 5845 5845 5844 5843 5842 5840 5839 5838 5837 5836 5835 5834 5834 5833 5833 5832 5832
5844 5846 5848 5847 5848 5849 5850 5851 5852 5853 5852 5851 5851 5851 5851 5850 5850 5849 5848 5847 5846 5845 5844 5843 5843 5842 5842 5841 5840 5839 5838 5837 5836 5835 5834 5834 5833 5832 5831 5830 5829 5828 5828 5827
5839 5842 5841 5842 5843 5844 5845 5846 5848 5848 5847 5847 5846 5847 5847 5846 5845 5845 5844 5843 5842 5841 5840 5839 5839 5838 5838 5837 5836 5835 5834 5833 5832 5831 5830 5830 5829 5828 5827 5826 5825 5824 5823 5823
5833 5835 5835 5836 5838 5839 5841 5843 5843 5842 5842 5842 5842 5841 5843 5842 5841 5841 5840 5839 5838 5837 5836 5835 5834 5834 5833 5832 5831 5830 5829 5829 5828 5827 5826 5825 5824 5824 5823 5821 5820 5819 5818 5817
5827 5829 5829 5831 5834 5834 5836 5838 5838 5837 5837 5837 5837 5836 5839 5838 5837 5837 5836 5835 5834 5833 5832 5831 5830 5829 5828 5827 5826 5826 5824 5824 5823 5822 5821 5820 5820 5819 5818 5817 5816 5815 5814 5813
5822 5823 5824 5827 5829 5830 5831 5832 5832 5832 5832 5832 5834 5832 5833 5834 5833 5833 5832 5831 5829 5829 5828 5827 5825 5824 5823 5822 5821 5820 5820 5819 5819 5818 5817 5816 5815 5814 5813 5812 5811 5810 5809 5808
5817 5819 5820 5822 5824 5825 5826 5827 5827 5827 5827 5828 5830 5828 5829 5830 5829 5828 5827 5826 5825 5824 5823 5822 5820 5819 5818 5817 5816 5815 5815 5814 5814 5813 5812 5811 5810 5809 5809 5808 5807 5805 5803 5802
5812 5814 5816 5817 5819 5820 5821 5823 5823 5823 5823 5824 5824 5824 5826 5826 5825 5824 5823 5821 5820 5819 5818 5816 5815 5813 5812 5811 5810 5809 5809 5808 5808 5808 5808 5807 5806 5805 5804 5803 5801 5800 5798 5797
5807 5810 5812 5812 5813 5815 5816 5817 5819 5818 5818 5818 5819 5820 5821 5821 5820 5819 5818 5816 5815 5814 5812 5811 5810 5808 5807 5806 5804 5804 5803 5803 5803 5803 5803 5802 5801 5800 5798 5797 5796 5795 5794 5792
5801 5803 5805 5807 5808 5809 5811 5812 5813 5812 5812 5811 5813 5814 5816 5815 5815 5814 5813 5811 5809 5808 5807 5805 5804 5802 5801 5800 5799 5798 5798 5797 5797 5797 5797 5797 5796 5794 5793 5791 5790 5789 5788 5786
5795 5797 5799 5800 5801 5803 5805 5806 5806 5807 5807 5807 5807 5812 5811 5810 5809 5809 5808 5806 5805 5803 5802 5800 5798 5797 5795 5794 5792 5792 5792 5792 5792 5792 5792 5791 5790 5789 5787 5786 5784 5783 5781 5780
5789 5790 5792 5795 5797 5798 5799 5800 5801 5802 5802 5802 5802 5806 5805 5804 5803 5802 5802 5800 5799 5797 5796 5794 5793 5791 5790 5788 5787 5786 5786 5786 5786 5786 5786 5785 5784 5783 5781 5779 5777 5776 5774 5773
5783 5785 5786 5788 5792 5792 5793 5794 5795 5796 5796 5796 5796 5800 5799 5798 5797 5797 5796 5795 5793 5791 5790 5789 5787 5786 5784 5782 5781 5780 5780 5780 5780 5780 5780 5779 5778 5776 5774 5772 5770 5769 5767 5765
5777 5779 5781 5783 5784 5785 5786 5788 5788 5789 5789 5789 5790 5792 5792 5792 5791 5791 5790 5789 5787 5785 5784 5783 5782 5781 5779 5777 5776 5775 5775 5774 5774 5774 5773 5772 5771 5769 5767 5765 5764 5762 5760 5758
5771 5773 5775 5777 5778 5779 5781 5781 5782 5782 5782 5783 5784 5784 5786 5785 5785 5785 5784 5782 5781 5779 5778 5777 5776 5775 5774 5772 5771 5769 5768 5768 5768 5767 5767 5765 5764 5762 5760 5759 5757 5755 5753 5751
5765 5767 5769 5771 5772 5773 5773 5775 5776 5776 5776 5776 5777 5778 5778 5778 5778 5778 5777 5776 5775 5773 5772 5771 5770 5769 5768 5767 5766 5764 5763 5763 5762 5761 5760 5758 5757 5755 5753 5752 5750 5748 5746 5744
5759 5761 5762 5764 5765 5765 5766 5768 5769 5769 5770 5770 5770 5772 5771 5772 5772 5772 5771 5770 5769 5767 5766 5765 5763 5763 5762 5761 5760 5759 5758 5757 5755 5754 5753 5751 5750 5748 5747 5745 5743 5741 5739 5737
5753 5754 5755 5757 5759 5758 5762 5762 5762 5762 5763 5763 5763 5764 5764 5765 5765 5765 5764 5763 5762 5760 5759 5758 5757 5756 5755 5754 5753 5752 5751 5749 5748 5747 5746 5744 5743 5742 5740 5738 5737 5735 5733 5731
5746 5748 5748 5750 5750 5751 5754 5754 5755 5755 5756 5756 5757 5757 5758 5758 5758 5758 5757 5756 5755 5754 5753 5752 5751 5750 5749 5747 5746 5745 5744 5742 5741 5740 5738 5737 5736 5735 5733 5732 5730 5728 5726 5724
5740 5741 5742 5742 5743 5744 5748 5748 5747 5748 5748 5749 5750 5750 5751 5751 5751 5752 5751 5750 5749 5748 5747 5746 5744 5743 5742 5740 5739 5738 5736 5735 5734 5732 5731 5730 5729 5727 5726 5725 5723 5721 5719 5717
5733 5734 5735 5736 5736 5737 5739 5740 5740 5741 5742 5742 5742 5743 5743 5743 5744 5745 5744 5743 5742 5741 5740 5738 5737 5736 5735 5734 5732 5731 5729 5728 5726 5725 5724 5723 5721 5720 5719 5717 5716 5714 5712 5709
5726 5727 5728 5729 5729 5732 5732 5732 5733 5733 5733 5734 5734 5734 5735 5735 5736 5736 5736 5735 5734 5734 5733 5731 5730 5729 5728 5727 5725 5724 5722 5721 5719 5718 5717 5715 5714 5712 5711 5710 5708 5706 5704 5702
5719 5720 5720 5722 5724 5724 5724 5724 5724 5724 5725 5725 5726 5726 5727 5727 5727 5727 5727 5727 5727 5726 5726 5725 5724 5723 5722 5720 5718 5717 5715 5713 5712 5710 5709 5708 5707 5705 5704 5703 5701 5699 5697 5694
5712 5712 5713 5713 5715 5715 5715 5715 5716 5716 5717 5717 5717 5718 5718 5718 5718 5719 5719 5719 5719 5719 5718 5718 5717 5716 5715 5713 5711 5709 5707 5706 5705 5703 5702 5700 5699 5698 5696 5695 5693 5691 5689 5687
5705 5705 5705 5706 5707 5707 5707 5707 5708 5708 5708 5708 5709 5709 5710 5710 5710 5711 5711 5711 5711 5711 5711 5710 5709 5708 5707 5706 5704 5702 5700 5698 5697 5696 5695 5693 5691 5690 5689 5687 5685 5683 5681 5679
5697 5698 5698 5698 5699 5699 5700 5699 5699 5700 5700 5700 5701 5701 5702 5702 5702 5703 5703 5703 5703 5703 5702 5701 5700 5700 5699 5698 5696 5694 5693 5691 5690 5689 5687 5685 5684 5682 5681 5679 5678 5675 5674 5672
Wind_Speed
22 22 21 21 21 21 22 20 19 17 18 20 21 20 18 18 18 18 19 18 17 16 16 17 17 17 17 17 17 17 18 17 16 16 16 15 15 16 16 16 16 16 16 17
22 21 21 22 22 22 21 21 20 19 19 21 22 21 20 19 19 19 19 18 18 17 17 17 17 18 18 18 18 19 18 17 16 16 15 15 15 16 16 16 16 17 18 18
22 20 22 23 23 23 22 21 20 20 21 22 23 22 20 19 19 18 18 18 18 17 17 17 17 18 18 18 18 18 19 18 17 16 16 16 16 16 16 17 17 18 19 19
22 21 23 23 23 23 22 21 21 21 22 22 22 22 18 17 17 17 18 18 18 18 18 17 17 18 18 18 19 19 19 19 18 17 17 17 17 17 18 18 17 17 18 18
21 22 23 23 22 23 22 21 22 21 22 22 21 22 18 17 17 18 18 18 18 19 19 18 18 18 18 19 19 19 18 18 17 18 17 17 17 17 17 17 17 17 18 18
21 22 23 22 22 22 22 22 23 22 22 22 20 22 20 18 19 19 19 19 19 20 20 19 20 20 19 19 19 19 18 18 19 19 17 17 17 18 18 18 19 19 19 19
22 23 23 23 23 23 23 23 23 23 23 22 20 21 21 18 19 19 20 20 20 21 20 20 20 20 20 20 20 19 19 19 19 18 18 17 18 18 19 19 20 21 20 20
23 24 23 23 23 23 23 23 23 23 23 21 20 21 20 19 19 20 21 22 21 21 20 20 20 20 20 20 21 21 19 19 18 18 18 18 19 19 20 20 21 21 22 21
22 22 23 24 24 24 24 24 23 24 24 23 22 21 20 20 21 21 22 22 22 22 21 21 21 21 20 20 21 21 20 19 19 19 19 20 20 20 21 21 21 21 22 23
23 23 23 23 24 26 25 24 24 24 25 25 24 22 20 20 21 20 21 22 23 23 22 22 21 20 21 21 21 21 20 19 20 20 20 20 21 21 21 21 21 22 23 23
24 24 23 24 24 24 24 25 25 25 26 26 26 23 21 22 22 21 21 22 23 23 22 22 22 21 21 21 22 21 20 20 20 20 21 21 21 22 22 22 23 23 23 24
25 25 23 23 23 24 24 25 25 26 26 26 27 24 23 23 22 22 22 23 23 23 22 22 21 21 21 22 21 21 21 21 21 21 22 22 22 23 23 23 24 24 25 25
24 24 24 24 24 24 25 25 26 27 27 27 27 25 24 24 23 23 23 24 24 23 22 21 21 22 22 22 22 22 22 21 21 22 22 23 24 24 24 24 25 25 26 26
24 24 24 25 24 24 25 26 26 27 28 28 27 27 26 26 25 23 23 23 23 22 21 21 21 22 22 22 22 22 22 21 22 22 23 24 24 24 25 25 25 26 26 26
25 24 25 25 24 25 26 25 25 26 27 28 28 27 26 26 25 24 24 23 23 22 21 21 22 22 22 22 23 22 22 23 22 23 24 24 25 25 25 25 25 26 26 26
26 26 25 25 25 26 27 26 26 26 27 28 28 27 26 26 25 24 24 23 23 22 22 22 23 23 23 23 23 22 23 23 23 23 24 23 24 25 25 25 25 26 27 27
27 27 26 25 25 27 28 26 26 27 27 28 28 27 26 25 24 25 24 23 22 23 22 22 23 24 24 23 23 23 23 24 24 24 23 23 23 23 24 24 25 25 26 26
27 27 27 27 26 28 26 26 27 27 28 27 27 26 26 25 24 25 24 23 22 23 24 23 23 24 24 24 24 24 24 24 24 24 24 24 24 24 25 25 25 26 25 25
27 27 27 27 28 28 27 27 27 28 27 27 26 25 25 25 24 25 24 23 23 23 24 24 24 24 24 25 25 25 25 25 25 25 25 25 25 25 25 25 26 25 25 24
26 26 27 27 28 28 27 27 28 29 28 27 27 26 25 25 24 24 23 23 23 24 24 23 23 23 23 24 24 25 25 25 26 26 26 26 26 26 25 26 25 25 25 25
25 26 27 27 28 29 27 27 28 29 28 27 26 26 26 26 25 24 24 23 23 24 23 24 23 24 24 24 24 24 25 25 26 26 26 26 26 25 26 26 26 26 26 25
26 27 28 28 28 29 27 27 28 27 27 27 26 26 26 26 26 25 24 23 23 23 24 23 23 23 23 23 24 25 25 25 25 26 26 25 26 26 26 26 26 26 26 26
27 27 28 28 28 28 28 28 27 27 27 27 27 27 27 27 26 26 24 24 24 24 23 23 23 23 23 24 25 25 25 25 25 25 25 25 25 25 25 25 26 27 27 27
25 26 27 28 27 28 28 29 29 28 27 27 27 26 26 27 27 27 26 26 26 26 25 25 25 25 26 26 26 26 25 25 24 24 24 25 24 24 24 25 27 28 28 28
24 25 26 27 27 27 28 29 29 28 28 27 27 26 26 27 26 26 27 27 27 27 26 27 27 26 26 26 26 25 25 25 24 24 24 25 24 25 25 26 27 27 28 27
25 25 26 26 27 27 27 27 27 27 27 26 26 26 26 26 27 27 27 27 27 27 27 27 27 27 27 27 26 25 26 26 26 26 26 26 26 26 26 26 26 26 26 25
Wind_Direction
252 252 253 253 253 256 259 259 260 261 261 262 265 269 272 273 275 275 277 280 282 282 285 284 284 285 288 291 292 295 296 296 297 298 297 296 297 297 297 292 288 287 284 283
253 253 252 249 249 253 255 257 259 259 261 264 265 269 274 274 276 276 276 280 278 278 282 281 282 283 286 289 292 294 294 292 293 297 299 297 296 295 296 291 288 286 285 285
255 254 251 248 247 249 253 257 258 260 262 265 268 269 273 274 276 275 275 277 275 274 277 279 283 284 283 285 290 293 294 290 290 293 295 294 293 293 294 291 289 289 287 285
254 250 249 248 247 248 252 254 258 260 263 265 270 273 271 275 277 274 274 274 274 277 277 277 281 282 283 285 288 291 292 289 288 289 290 290 291 293 294 293 292 291 290 288
252 250 249 249 248 250 253 254 257 260 262 264 268 273 274 274 276 276 275 275 274 277 278 279 281 280 281 285 285 286 286 285 287 287 289 289 290 292 293 290 289 290 291 289
248 247 248 248 248 249 251 253 256 258 261 263 267 273 276 278 279 278 278 280 278 278 279 279 280 279 279 280 280 281 283 283 286 286 287 290 290 290 290 288 288 289 290 287
247 245 245 245 245 247 250 254 258 261 262 266 269 272 278 282 281 282 283 284 284 283 282 279 280 280 280 280 281 284 283 282 284 285 285 288 289 287 288 286 286 288 289 288
253 246 245 244 246 249 250 253 260 267 270 270 269 272 278 282 283 283 284 286 287 286 285 284 284 284 283 283 283 285 284 283 284 284 282 285 286 286 287 287 286 286 289 288
256 254 249 248 248 250 251 253 258 267 272 273 273 274 277 279 282 283 285 286 284 285 286 287 287 286 284 284 284 283 282 281 282 282 282 284 285 287 290 289 289 289 288 288
257 256 251 251 251 250 252 256 259 264 272 275 274 276 279 280 283 286 286 285 284 284 286 287 289 288 287 285 285 281 278 278 280 280 279 282 287 290 292 290 290 290 289 287
252 253 253 252 251 252 252 254 259 264 270 274 276 277 282 285 286 286 286 285 284 284 285 287 287 287 286 283 282 278 278 277 277 279 279 282 287 290 291 291 289 290 290 288
250 252 252 252 251 253 257 258 261 264 267 270 275 278 282 285 286 287 288 287 286 285 286 287 285 285 284 282 278 277 279 276 278 278 280 282 287 290 291 292 290 290 290 289
249 251 252 251 251 254 255 257 261 264 267 269 272 278 282 283 286 288 288 288 288 286 286 287 285 285 284 282 277 278 277 279 280 280 280 283 287 290 290 291 291 292 291 291
250 251 253 254 254 255 256 258 261 263 266 269 272 277 280 280 283 286 287 288 288 286 283 284 284 284 283 283 281 279 278 281 281 281 283 284 286 289 291 291 292 292 292 292
250 252 255 255 256 258 258 258 260 263 266 270 274 277 280 281 282 283 284 287 288 285 282 282 283 285 286 285 285 283 282 285 285 284 283 283 284 288 290 289 291 293 293 294
249 252 255 256 259 260 260 261 264 266 268 269 272 274 277 280 281 283 283 283 284 285 285 284 284 285 286 286 286 285 285 288 288 287 288 286 286 288 289 289 291 292 294 294
252 255 257 258 260 260 259 262 264 266 267 269 271 274 275 278 279 281 283 283 282 284 286 286 285 286 287 286 285 285 286 287 288 288 287 287 290 292 291 292 293 293 294 294
253 256 259 261 260 259 262 263 265 267 266 266 269 270 272 277 279 280 282 281 280 283 284 285 286 288 287 287 286 286 286 286 285 286 286 287 290 291 291 291 292 294 294 293
255 256 258 260 260 260 262 265 267 267 264 263 267 270 272 275 278 278 279 280 280 282 284 285 286 287 287 288 288 287 287 286 286 286 286 287 289 290 290 291 292 293 292 292
255 256 257 260 263 264 265 267 268 268 265 265 266 268 270 271 272 275 275 276 279 281 282 284 285 285 285 287 288 285 284 285 285 285 285 286 288 289 289 290 291 292 291 291
256 255 256 260 263 266 267 268 267 266 267 265 265 267 269 270 272 273 274 275 278 278 281 284 284 282 282 284 285 283 284 285 284 284 284 285 287 287 288 288 290 291 291 291
259 258 259 260 260 264 267 268 268 269 267 265 266 267 269 270 271 271 271 271 274 276 280 283 284 283 284 285 285 286 286 285 283 283 283 285 286 287 287 288 290 292 293 294
262 262 262 263 264 266 267 268 268 267 267 266 266 267 268 269 269 268 268 271 275 279 281 283 285 284 286 287 289 291 288 286 285 282 281 283 287 288 289 291 293 294 295 295
261 262 263 264 265 267 266 266 266 267 268 267 265 265 267 268 268 268 268 271 275 279 281 283 285 287 287 289 291 292 289 288 287 286 284 285 288 289 291 292 293 294 295 295
265 266 266 265 267 267 267 266 265 267 269 267 264 264 265 266 266 267 268 272 276 278 281 282 285 286 286 287 290 291 291 288 287 286 287 288 288 288 290 292 293 294 295 294
267 268 269 268 268 269 267 265 264 266 269 267 263 264 263 263 265 267 271 274 276 277 280 282 283 283 284 287 288 288 289 288 287 287 287 286 286 286 288 291 293 295 295 294